Location: Bartlow
(52.0833°N, 0.3167°E)
Time: 00:43:56
(UTC+00:00)

Cosmos 1782 - Visible Passes

Search period start: 24 April 2024 00:00
Search period end: 04 May 2024 00:00
Orbit: 511 x 523 km, 82.5° (Epoch: 23 April)

Date Brightness Start Highest point End Pass type
(mag) Time Alt. Az. Time Alt. Az. Time Alt. Az.
24 Apr 5.1 01:21:17 13° WNW 01:21:41 13° WNW 01:23:31 10° NNW visible
24 Apr 3.4 23:31:35 49° NE 23:31:35 49° NE 23:34:34 10° NNE visible
25 Apr 5.0 01:06:36 15° WNW 01:06:57 15° WNW 01:09:12 10° NNW visible
25 Apr 3.5 23:16:52 45° NE 23:16:52 45° NE 23:19:53 10° NNE visible
26 Apr 4.9 00:51:53 17° WNW 00:52:13 17° WNW 00:54:47 10° NNW visible
26 Apr 3.6 23:02:06 40° ENE 23:02:06 40° ENE 23:05:08 10° NNE visible
27 Apr 4.7 00:37:07 19° WNW 00:37:27 19° WNW 00:40:16 10° NNW visible
27 Apr 3.7 22:47:19 36° ENE 22:47:19 36° ENE 22:50:21 10° NNE visible
28 Apr 4.5 00:22:19 22° WNW 00:22:40 22° WNW 00:25:42 10° NNW visible
28 Apr 3.8 22:32:29 31° ENE 22:32:29 31° ENE 22:35:31 10° NNE visible
29 Apr 4.3 00:07:29 25° W 00:07:52 25° WNW 00:11:06 10° NNW visible
29 Apr 4.0 22:17:36 27° E 22:17:36 27° E 22:20:39 10° NNE visible
29 Apr 4.1 23:52:37 28° W 23:53:02 29° WNW 23:56:27 10° N visible
30 Apr 4.1 22:02:42 24° E 22:02:42 24° E 22:05:42 10° NE visible
30 Apr 3.9 23:37:42 32° W 23:38:12 34° WNW 23:41:44 10° N visible
01 May 4.3 21:47:45 20° E 21:47:53 20° E 21:50:44 10° NE visible
01 May 3.6 23:22:45 37° W 23:23:21 40° WNW 23:26:59 10° N visible
02 May 4.4 21:32:45 17° E 21:33:06 17° E 21:35:41 10° NE visible
02 May 3.4 23:07:45 41° WSW 23:08:29 47° WNW 23:12:12 10° N visible
03 May 4.6 21:17:43 15° E 21:18:19 15° E 21:20:32 10° NE visible
03 May 3.1 22:52:43 43° SW 22:53:36 56° WNW 22:57:23 10° N visible
